| time (UTC) | temp C | wind direction | speed KPH | gust KPH | rain 1hr cm | rain 24hr cm | rain mn cm | humidity % | barometer mb |
| 20260504081036 | 14 | 203 | 3.2 | 9.7 | 0.00 | 0.03 | 0.00 | 78 | 1007.1 |
| 20260504050017 | 15 | 180 | 3.2 | 6.4 | 0.03 | 0.03 | 0.03 | 75 | 1008.0 |
| 20260504045017 | 15 | 158 | 4.8 | 9.7 | 0.03 | 0.03 | 0.03 | 72 | 1008.5 |
| 20260504044037 | 16 | 225 | 4.8 | 14.5 | 0.00 | 0.00 | 0.00 | 67 | 1009.0 |
| 20260504043018 | 16 | 203 | 3.2 | 6.4 | 0.00 | 0.00 | 0.00 | 67 | 1008.6 |
| 20260504042017 | 16 | 203 | 3.2 | 8.0 | 0.00 | 0.00 | 0.00 | 67 | 1008.7 |
| 20260504041016 | 16 | 203 | 3.2 | 8.0 | 0.00 | 0.00 | 0.00 | 65 | 1008.7 |
| 20260504040017 | 16 | 180 | 3.2 | 16.1 | 0.00 | 0.00 | 0.00 | 64 | 1008.6 |
| 20260504035017 | 16 | 203 | 4.8 | 20.9 | 0.00 | 0.00 | 0.00 | 64 | 1008.8 |
| 20260504034017 | 16 | 203 | 4.8 | 14.5 | 0.00 | 0.00 | 0.00 | 63 | 1008.4 |
| 20260504033038 | 16 | 203 | 4.8 | 19.3 | 0.00 | 0.00 | 0.00 | 64 | 1008.4 |
| 20260504032017 | 16 | 225 | 3.2 | 12.9 | 0.00 | 0.00 | 0.00 | 64 | 1008.4 |
| 20260504031037 | 16 | 203 | 4.8 | 16.1 | 0.00 | 0.00 | 0.00 | 65 | 1009.0 |
| 20260504030017 | 16 | 180 | 4.8 | 16.1 | 0.00 | 0.00 | 0.00 | 64 | 1009.2 |
| 20260504025017 | 16 | 180 | 3.2 | 11.3 | 0.00 | 0.00 | 0.00 | 64 | 1008.9 |
| 20260504024017 | 17 | 203 | 3.2 | 14.5 | 0.00 | 0.00 | 0.00 | 63 | 1008.9 |
| 20260504023017 | 16 | 158 | 3.2 | 16.1 | 0.00 | 0.00 | 0.00 | 63 | 1008.4 |
| 20260504022016 | 16 | 180 | 6.4 | 12.9 | 0.00 | 0.00 | 0.00 | 63 | 1008.6 |
| 20260504021017 | 16 | 203 | 4.8 | 9.7 | 0.00 | 0.00 | 0.00 | 64 | 1009.0 |
| 20260504020017 | 16 | 180 | 4.8 | 14.5 | 0.00 | 0.00 | 0.00 | 64 | 1008.6 |
| 20260504015016 | 16 | 180 | 6.4 | 19.3 | 0.00 | 0.00 | 0.00 | 63 | 1008.6 |
| 20260504014017 | 17 | 180 | 4.8 | 22.5 | 0.00 | 0.00 | 0.00 | 63 | 1009.2 |
| 20260504013038 | 17 | 203 | 6.4 | 17.7 | 0.00 | 0.00 | 0.00 | 57 | 1008.8 |
| 20260504012017 | 17 | 203 | 6.4 | 24.1 | 0.00 | 0.00 | 0.00 | 56 | 1008.0 |
| 20260504011037 | 18 | 180 | 4.8 | 17.7 | 0.00 | 0.00 | 0.00 | 55 | 1008.3 |
| 20260504010016 | 18 | 203 | 6.4 | 19.3 | 0.00 | 0.00 | 0.00 | 55 | 1008.0 |
| 20260504005016 | 18 | 225 | 8.0 | 32.2 | 0.00 | 0.00 | 0.00 | 52 | 1008.3 |
| 20260504004017 | 18 | 203 | 3.2 | 22.5 | 0.00 | 0.00 | 0.00 | 53 | 1008.5 |
| 20260504003016 | 18 | 180 | 3.2 | 12.9 | 0.00 | 0.00 | 0.00 | 52 | 1008.5 |
| 20260504002016 | 18 | 180 | 4.8 | 16.1 | 0.00 | 0.00 | 0.00 | 51 | 1008.1 |
| 20260504001016 | 18 | 180 | 3.2 | 12.9 | 0.00 | 0.00 | 0.00 | 52 | 1008.6 |
| 20260504000037 | 19 | 203 | 3.2 | 9.7 | 0.00 | 0.00 | 0.00 | 50 | 1008.6 |
| 20260503235017 | 19 | 180 | 4.8 | 14.5 | 0.00 | 0.00 | 0.00 | 49 | 1008.6 |
| 20260503234017 | 19 | 203 | 4.8 | 16.1 | 0.00 | 0.00 | 0.00 | 50 | 1008.7 |
| 20260503233016 | 19 | 158 | 4.8 | 29.0 | 0.00 | 0.00 | 0.00 | 49 | 1009.0 |
| 20260503232016 | 19 | 180 | 4.8 | 14.5 | 0.00 | 0.00 | 0.00 | 49 | 1009.3 |
| 20260503231016 | 20 | 225 | 3.2 | 9.7 | 0.00 | 0.00 | 0.00 | 48 | 1009.7 |
| 20260503230017 | 20 | 203 | 4.8 | 17.7 | 0.00 | 0.00 | 0.00 | 47 | 1009.6 |
| 20260503225017 | 20 | 180 | 4.8 | 12.9 | 0.00 | 0.00 | 0.00 | 48 | 1009.5 |
| 20260503224016 | 20 | 203 | 4.8 | 25.7 | 0.00 | 0.00 | 0.00 | 47 | 1009.7 |
| 20260503223016 | 20 | 225 | 6.4 | 19.3 | 0.00 | 0.00 | 0.00 | 49 | 1009.4 |
| 20260503222057 | 20 | 203 | 6.4 | 30.6 | 0.00 | 0.00 | 0.00 | 47 | 1009.4 |
| 20260503221037 | 20 | 180 | 4.8 | 16.1 | 0.00 | 0.00 | 0.00 | 46 | 1009.6 |
| 20260503220036 | 19 | 225 | 8.0 | 24.1 | 0.00 | 0.00 | 0.00 | 48 | 1009.8 |
| 20260503215017 | 19 | 203 | 6.4 | 20.9 | 0.00 | 0.00 | 0.00 | 47 | 1010.1 |
| 20260503214057 | 19 | 203 | 4.8 | 19.3 | 0.00 | 0.00 | 0.00 | 48 | 1010.1 |
| 20260503213017 | 19 | 203 | 6.4 | 20.9 | 0.00 | 0.00 | 0.00 | 47 | 1010.2 |
| 20260503212016 | 19 | 203 | 8.0 | 30.6 | 0.00 | 0.00 | 0.00 | 48 | 1010.1 |
| 20260503211016 | 18 | 180 | 8.0 | 35.4 | 0.00 | 0.00 | 0.00 | 49 | 1009.9 |
| 20260503210058 | 19 | 203 | 8.0 | 27.4 | 0.00 | 0.00 | 0.00 | 48 | 1010.0 |
| 20260503205016 | 18 | 203 | 6.4 | 22.5 | 0.00 | 0.00 | 0.00 | 49 | 1010.0 |
| 20260503204037 | 18 | 180 | 6.4 | 20.9 | 0.00 | 0.00 | 0.00 | 52 | 1010.0 |
| 20260503203017 | 17 | 180 | 11.3 | 27.4 | 0.00 | 0.00 | 0.00 | 50 | 1009.8 |
| 20260503202036 | 18 | 180 | 8.0 | 30.6 | 0.00 | 0.00 | 0.00 | 50 | 1010.2 |
| 20260503201037 | 17 | 203 | 8.0 | 20.9 | 0.00 | 0.00 | 0.00 | 51 | 1010.5 |
| 20260503200017 | 17 | 180 | 8.0 | 24.1 | 0.00 | 0.00 | 0.00 | 52 | 1011.1 |
| 20260503195016 | 17 | 203 | 6.4 | 16.1 | 0.00 | 0.00 | 0.00 | 52 | 1011.4 |
| 20260503194016 | 17 | 203 | 4.8 | 22.5 | 0.00 | 0.00 | 0.00 | 57 | 1011.8 |
| 20260503193016 | 16 | 203 | 6.4 | 19.3 | 0.00 | 0.00 | 0.00 | 55 | 1012.0 |
| 20260503192016 | 16 | 180 | 6.4 | 20.9 | 0.00 | 0.00 | 0.00 | 55 | 1012.3 |
| 20260503191016 | 16 | 203 | 8.0 | 38.6 | 0.00 | 0.00 | 0.00 | 55 | 1012.5 |
| 20260503190016 | 16 | 203 | 4.8 | 16.1 | 0.00 | 0.00 | 0.00 | 54 | 1012.8 |
| 20260503185016 | 16 | 225 | 6.4 | 22.5 | 0.00 | 0.00 | 0.00 | 55 | 1013.2 |
| 20260503184016 | 16 | 203 | 6.4 | 25.7 | 0.00 | 0.00 | 0.00 | 54 | 1013.2 |
| 20260503183016 | 16 | 203 | 6.4 | 25.7 | 0.00 | 0.00 | 0.00 | 55 | 1013.1 |
| 20260503182036 | 16 | 203 | 6.4 | 22.5 | 0.00 | 0.00 | 0.00 | 55 | 1013.3 |
| 20260503181057 | 16 | 203 | 6.4 | 19.3 | 0.00 | 0.00 | 0.00 | 52 | 1013.5 |
| 20260503180016 | 16 | 180 | 6.4 | 19.3 | 0.00 | 0.00 | 0.00 | 54 | 1014.3 |
| 20260503175017 | 16 | 225 | 8.0 | 27.4 | 0.00 | 0.00 | 0.00 | 55 | 1014.5 |
| 20260503174016 | 17 | 203 | 6.4 | 16.1 | 0.00 | 0.00 | 0.00 | 51 | 1014.7 |
| 20260503173016 | 16 | 203 | 6.4 | 20.9 | 0.00 | 0.00 | 0.00 | 54 | 1014.8 |
| 20260503172016 | 17 | 225 | 6.4 | 22.5 | 0.00 | 0.00 | 0.00 | 53 | 1014.9 |
| 20260503171016 | 16 | 180 | 4.8 | 16.1 | 0.00 | 0.00 | 0.00 | 53 | 1014.8 |
| 20260503131037 | 10 | 203 | 4.8 | 12.9 | 0.00 | 0.00 | 0.00 | 77 | 1017.7 |